ASTRANIS UTILITYSAT (62454 NORAD) Tracking and Keplerian Element Data

This shows tracking and keplerian element data for the satellite.

Feedback or suggestion? Click here.




ElementValue
Catalog62454
NameASTRANIS UTILITYSAT
Epoch Orbit37
Epoch Day31.73854381
Epoch Year2025
RAAN353.7357
Inclination9.8994
Eccentricity0.7710072
Argument of Perigee191.0177
Mean Anonmoly128.6461
Mean Motion1.06955586
Decay Rate-2.05E-06
L11 62454U 24252A 25031.73854381 -.00000205 00000+0 -24776+0 0 9999
L22 62454 9.8994 353.7357 7710072 191.0177 128.6461 1.06955586 378



Live tracking and technical data element details for ASTRANIS UTILITYSAT (NORAD 62454). ASTRANIS UTILITYSAT can be tracked NOW for your location showing map with azimuth and elevation plus other details from your city location.







IsCatalogInMostPopularTable: catalog: 62454, numindb: 23
Update: records affected: 1



GetName: 62454 ASTRANIS UTILITYSAT

Hit Count: updated at: Sun, 18 May 2025 22:46:31 GMT